X Fechar
foto

X Fechar
foto
Clique e saiba mais
Clique e saiba mais
Clique e saiba mais
Clique e saiba mais
Clique e saiba mais
Clique e saiba mais

Edgers Racing

KTM Sacramento

Toro Sports

SP Race Park

JPS Racing

MotoX Pneus

Arenafama

Clique e saiba mais

> Notícias > Últimas Notícias

MXGP de Trentino: Resultados e melhores momentos de sábado no Mundial de MX
Publicado em: 06/04/2019

Tim Gajser e Jorge Prado lideram classificatórias de sábado na quarta rodada do Mundial de Motocross 2019
Redação MotoX.com.br - Foto: Bavo Swijgers


Tim Gajser liderou desde a largada a corrida classificatória da MXGP neste sábado em Trentino, Itália

Vídeo com os melhores momentos:





Resultados

P. # MXGP Classificatória País M Tempo V Dif. Gap M.V. inlap Speed
1 243 Gajser, Tim SLO Hon 23:45.731 13 0:00.000 0:00.000 1:47.322 5 51.9
2 222 Cairoli, Antonio ITA KTM 23:46.280 13 0:00.549 0:00.549 1:47.699 5 51.8
3 4 Tonus, Arnaud SUI Yam 24:15.209 13 0:29.478 0:28.929 1:48.436 6 51.4
4 128 Monticelli, Ivo ITA KTM 24:29.798 13 0:44.067 0:14.589 1:50.165 5 50.6
5 21 Paulin, Gautier FRA Yam 24:30.714 13 0:44.983 0:00.916 1:49.922 7 50.7
6 77 Lupino, Alessandro ITA Kaw 24:37.266 13 0:51.535 0:06.552 1:50.244 5 50.6
7 41 Jonass, Pauls LAT Hus 24:41.724 13 0:55.993 0:04.458 1:51.350 4 50.1
8 91 Seewer, Jeremy SUI Yam 24:42.752 13 0:57.021 0:01.028 1:51.197 6 50.1
9 24 Simpson, Shaun GBR KTM 24:44.859 13 0:59.128 0:02.107 1:51.324 6 50.1
10 297 Gole, Anton SWE Yam 24:48.780 13 1:03.049 0:03.921 1:51.066 6 50.2
11 100 Searle, Tommy GBR Kaw 24:52.301 13 1:06.570 0:03.521 1:51.419 6 50
12 89 Van Horebeek, Jeremy BEL Hon 24:55.001 13 1:09.270 0:02.700 1:50.559 8 50.4
13 33 Lieber, Julien BEL Kaw 24:56.902 13 1:11.171 0:01.901 1:51.038 8 50.2
14 27 Jasikonis, Arminas LTU Hus 24:57.804 13 1:12.073 0:00.902 1:51.305 8 50.1
15 99 Anstie, Max GBR KTM 25:08.300 13 1:22.569 0:10.496 1:51.737 5 49.9
16 25 Desalle, Clement BEL Kaw 25:10.489 13 1:24.758 0:02.189 1:53.095 6 49.3
17 6 Paturel, Benoit FRA Kaw 25:11.962 13 1:26.231 0:01.473 1:52.713 7 49.5
18 189 Bogers, Brian NED Hon 25:13.436 13 1:27.705 0:01.474 1:51.592 6 50
19 7 Leok, Tanel EST Hus 25:17.245 13 1:31.514 0:03.809 1:52.785 9 49.4
20 152 Petrov, Petar BUL KTM 25:35.730 13 1:49.999 0:18.485 1:54.336 10 48.8
21 259 Coldenhoff, Glenn NED KTM 25:36.257 13 1:50.526 0:00.527 1:50.630 12 50.4
22 143 De Bortoli, Davide ITA Hon 23:49.936 12 1 lap 1 lap 1:54.495 8 48.7
23 321 Bernardini, Samuele ITA Yam 23:51.880 12 1 lap 0:01.944 1:53.883 5 48.9
24 15 Bonini, Davide ITA Suz 23:52.885 12 1 lap 0:01.005 1:55.407 5 48.3
25 760 Rauchenecker, Pascal AUT KTM 23:59.598 12 1 lap 0:06.713 1:55.199 8 48.4
26 555 Guryev, Artem RUS Hus 24:05.685 12 1 lap 0:06.087 1:55.877 3 48.1
27 62 Gercar, Klemen SLO Hus 24:16.647 12 1 lap 0:10.962 1:56.741 4 47.7
28 93 Bengtsson, Jonathan SWE KTM 24:17.857 12 1 lap 0:01.210 1:55.747 5 48.2
29 878 Pezzuto, Stefano ITA Suz 24:20.151 12 1 lap 0:02.294 1:55.666 5 48.2
30 226 Koch, Tom GER KTM 24:20.635 12 1 lap 0:00.484 1:56.088 5 48
31 622 Di Marziantonio, Gianluca ITA KTM 23:48.719 11 2 laps 1 lap 2:00.121 2 46.4
32 18 Brylyakov, Vsevolod RUS Yam 24:09.423 11 2 laps 0:20.704 1:55.085 3 48.4
33 94 Van der Mierden, Sven NED Yam 10:04.811 5 8 laps 6 laps 1:55.416 5 48.3
34 17 Butron, Jose ESP KTM 6:19.881 3 10 laps 2 laps 1:56.078 3 48

P. # MX2 Classificatória País M Tempo V Dif. Gap M.V. inlap Speed
1 61 Prado, Jorge ESP KTM 24:19.805 13 0:00.000 0:00.000 1:49.828 5 50.8
2 193 Geerts, Jago BEL Yam 24:29.657 13 0:09.852 0:09.852 1:50.387 2 50.5
3 28 Vialle, Tom FRA KTM 24:35.221 13 0:15.416 0:05.564 1:50.931 4 50.3
4 19 Olsen, Thomas Kjer DEN Hus 24:46.711 13 0:26.906 0:11.490 1:51.256 6 50.1
5 35 Harrison, Mitchell USA Kaw 24:58.358 13 0:38.553 0:11.647 1:52.233 9 49.7
6 747 Cervellin, Michele ITA Yam 25:00.461 13 0:40.656 0:02.103 1:53.252 11 49.2
7 57 Sanayei, Darian USA Kaw 25:01.997 13 0:42.192 0:01.536 1:53.470 11 49.1
8 919 Watson, Ben GBR Yam 25:03.377 13 0:43.572 0:01.380 1:51.592 4 50
9 959 Renaux, Maxime FRA Yam 25:06.327 13 0:46.522 0:02.950 1:53.261 11 49.2
10 225 Strubhart Moreau, Brian FRA Kaw 25:07.148 13 0:47.343 0:00.821 1:53.511 7 49.1
11 29 Jacobi, Henry GER Kaw 25:07.813 13 0:48.008 0:00.665 1:52.256 13 49.7
12 32 Van doninck, Brent BEL Hon 25:19.931 13 1:00.126 0:12.118 1:53.257 10 49.2
13 66 Larranaga Olano, Iker ESP KTM 25:21.557 13 1:01.752 0:01.626 1:54.078 5 48.9
14 811 Sterry, Adam GBR Kaw 25:23.261 13 1:03.456 0:01.704 1:54.067 4 48.9
15 98 Vaessen, Bas NED KTM 25:24.727 13 1:04.922 0:01.466 1:53.510 5 49.1
16 931 Zanotti, Andrea SMR KTM 25:26.070 13 1:06.265 0:01.343 1:53.734 5 49
17 172 Boisrame, Mathys FRA Hon 25:31.719 13 1:11.914 0:05.649 1:53.501 8 49.1
18 101 Pichon, Zachary FRA Hon 25:37.490 13 1:17.685 0:05.771 1:55.344 8 48.3
19 184 Bres, Natanael FRA Yam 25:41.033 13 1:21.228 0:03.543 1:54.648 7 48.6
20 200 Zonta, Filippo ITA Hon 25:42.153 13 1:22.348 0:01.120 1:55.270 12 48.4
21 14 Beaton, Jed AUS Hus 25:44.360 13 1:24.555 0:02.207 1:55.635 12 48.2
22 46 Pootjes, Davy NED Hus 25:45.114 13 1:25.309 0:00.754 1:55.097 12 48.4
23 426 Mewse, Conrad GBR KTM 25:50.432 13 1:30.627 0:05.318 1:55.142 10 48.4
24 43 Evans, Mitchell AUS Hon 25:53.881 13 1:34.076 0:03.449 1:55.256 6 48.4
25 161 Östlund, Alvin SWE Hus 25:54.838 13 1:35.033 0:00.957 1:55.419 5 48.3
26 44 Lesiardo, Morgan ITA KTM 25:57.018 13 1:37.213 0:02.180 1:56.540 12 47.8
27 783 Toriani, Enzo FRA Hus 25:58.094 13 1:38.289 0:01.076 1:56.527 4 47.8
28 124 Teresak, Jakub CZE KTM 25:59.072 13 1:39.267 0:00.978 1:56.580 12 47.8
29 75 Roosiorg, Hardi EST KTM 25:59.675 13 1:39.870 0:00.603 1:55.811 7 48.1
30 102 Sikyna, Richard SVK KTM 26:01.229 13 1:41.424 0:01.554 1:56.321 10 47.9
31 766 Sandner, Michael AUT KTM 26:03.934 13 1:44.129 0:02.705 1:56.024 11 48
32 253 Pancar, Jan SLO Yam 26:05.102 13 1:45.297 0:01.168 1:56.549 5 47.8
33 53 Walsh, Dylan NZL Hus 26:16.661 13 1:56.856 0:11.559 1:56.468 5 47.9
34 282 Kahrle, Hampus SWE Hus 26:17.751 13 1:57.946 0:01.090 1:56.074 5 48
35 332 Conijn, Marcel NED Kaw 24:20.576 12 1 lap 1 lap 1:57.070 5 47.6
36 56 Pessoa, Gustavo BRA Kaw 24:23.946 12 1 lap 0:03.370 1:55.835 5 48.1
37 313 Polak, Petr CZE KTM 24:27.900 12 1 lap 0:03.954 1:56.709 4 47.8
38 331 Freidig, Loris SUI Yam 25:17.529 12 1 lap 0:49.629 1:56.522 5 47.8
39 275 Furbetta, Joakin ITA Hus 25:01.305 11 2 laps 1 lap 1:56.212 8 48
40 10 Vlaanderen, Calvin NED Hon 0:14.707 0 13 laps 11 laps 0:00.000   0








© 2000 - 2018 MotoX MX1 Internet